Regional Weather Roundup
Issued by NWS

Home | Current Version | Previous Version | Graphics & Text | Print | Product List | Glossary On
Versions: 1 2 3 4 5 6 7 8 9 10 11 12 13 14 15 16 17 18 19 20 21 22 23 24 25 26 27 28 29 30 31 32 33 34 35 36 37 38 39 40 41 42 43 44 45 46 47 48 49 50
166
ASUS43 KIND 270259
RWRIN

WEATHER ROUNDUP FOR INDIANA
NATIONAL WEATHER SERVICE INDIANAPOLIS IN
1100 PM EDT WED APR 26 2017

NOTE: "FAIR" INDICATES FEW OR NO CLOUDS BELOW 12,000 FEET WITH NO
SIGNIFICANT WEATHER AND/OR OBSTRUCTIONS TO VISIBILITY.

* - STATION DOES NOT REPORT WEATHER SUCH AS PRECIPITATION OR FOG.

+ - STATION NOT QUALITY CONTROLLED BY THE NATIONAL WEATHER SERVICE.
    USE DATA WITH CAUTION...ESPECIALLY DEWPOINT AND RELATIVE
    HUMIDITY OBSERVATIONS.

INZ001>003-010>013-019-020-270400-
NORTHWEST INDIANA

CITY           SKY/WX    TMP DP  RH WIND       PRES   REMARKS
GARY /AIRPORT/ LGT RAIN  66  61  82 W6        29.50R
KNOX *+        CLOUDY    64  41  42 SW7       29.48R
MONTICELLO +   HVY RAIN  64  61  91 W7G16     29.51R
VALPARAISO     RAIN      63  61  94 W15       29.51R FOG

$$

LMZ046-743>745-270400-
SOUTHERN LAKE MICHIGAN

STATION/POSITION TIME  TEMP    WIND        PRES    WAVE
                       AIR SEA DIR/SP/G            HT
                 (UTC) (F)     (DEG/KT/KT) (MB)    (FT)
BURNS HARBOR     0240   64     250/ 12/ 27  999.7R
MICHIGAN CITY    0230   64     220/ 16/ 17   N/A
5NW MICH CITY    0250   54 49                N/A     1

$$

INZ004-005-014>016-021>024-270400-
NORTH CENTRAL INDIANA

CITY           SKY/WX    TMP DP  RH WIND       PRES   REMARKS
GOSHEN         CLOUDY    66  59  78 S8        29.49R
SOUTH BEND     CLOUDY    66  58  75 CALM      29.47R

$$

INZ006>009-017-018-025>027-270400-
NORTHEAST INDIANA

CITY           SKY/WX    TMP DP  RH WIND       PRES   REMARKS
ANGOLA *+      CLEAR     64  57  77 SE6       29.51R
FORT WAYNE     MOCLDY    62  59  90 SE8       29.52S
KENDALLVILLE + CLOUDY    64  61  90 SE7       29.51S

$$

INZ028-029-035-036-043>045-051>053-270400-
WEST CENTRAL INDIANA

CITY           SKY/WX    TMP DP  RH WIND       PRES   REMARKS
CRAWFORDSVL +  CLOUDY    61  61 100 CALM      29.51S
GREENCASTLE +  MOCLDY    59  57  94 CALM      29.52R
LAFAYETTE      CLOUDY    62  62 100 NW7       29.50F
TERRE HAUTE    LGT RAIN  63  59  87 N5        29.51R

$$

INZ030>032-037>040-046>048-054>057-064-065-270400-
CENTRAL INDIANA

CITY           SKY/WX    TMP DP  RH WIND       PRES   REMARKS
INDIANAPOLIS   MOCLDY    67  58  72 SE6       29.51R
-EAGLE CREEK   MOCLDY    64  58  80 E3        29.51R
KOKOMO +       CLOUDY    62  61  96 SE9       29.51R
SHELBYVILLE    PTCLDY    74  52  46 S15       29.52S

$$

INZ033-034-041-042-049-050-058-059-270400-
EAST CENTRAL INDIANA

CITY           SKY/WX    TMP DP  RH WIND       PRES   REMARKS
MUNCIE         PTCLDY    73  57  57 S9        29.52F
RICHMOND +     PTCLDY    64  52  63 SE10      29.59S

$$

INZ060-061-067>069-081>083-085>088-270400-
SOUTHWEST INDIANA

CITY           SKY/WX    TMP DP  RH WIND       PRES   REMARKS
EVANSVILLE     CLOUDY    64  56  75 N5        29.56R
HUNTINGBURG *+ CLOUDY    74  56  53 S13       29.54R

$$

INZ062-063-066-070>080-084-089>092-270400-
SOUTH CENTRAL AND SOUTHEAST INDIANA

CITY           SKY/WX    TMP DP  RH WIND       PRES   REMARKS
BLOOMINGTON    PTCLDY    73  54  51 S14G21    29.52R
MADISON *+     CLEAR     72  50  46 SE7       29.58S
SEYMOUR +      CLOUDY    73  54  49 S7        29.53R

$$





USA.gov is the U.S. government's official web portal to all federal, state and local government web resources and services.